Temp
33 37 37 36 35 36 33 33 26 28 30 31 31 28 29 28 28 29 27 28 26 24 24 25 28 30 32 33 33 33 32 30 30 31 31 31 31 29 30 30 31 32 33 34
23 35 35 31 33 34 35 34 34 34 31 32 32 31 29 30 30 29 29 29 30 29 29 28 29 30 31 32 32 32 31 30 30 31 30 29 29 29 27 27 28 30 31 32
26 33 33 26 31 32 33 36 36 30 35 31 29 30 28 28 30 30 30 29 27 25 27 28 27 29 29 31 33 31 30 30 30 29 28 28 28 28 26 25 26 26 28 31
27 29 19 30 39 39 36 39 38 33 30 32 31 30 30 30 29 30 30 29 28 24 25 26 27 28 29 31 31 30 29 28 29 29 27 27 26 25 25 24 23 23 25 28
24 25 29 33 35 35 33 34 37 31 30 28 28 28 25 31 31 30 29 29 27 28 27 26 27 28 28 27 28 29 28 27 28 28 26 26 24 23 23 23 22 22 23 26
27 24 21 30 35 40 40 27 36 32 28 27 28 23 23 29 31 30 30 29 27 27 27 26 26 27 26 24 26 25 27 27 27 27 25 24 24 23 23 23 22 22 23 23
27 25 29 35 37 38 26 27 35 35 31 29 27 26 28 30 29 32 31 29 29 27 25 24 26 27 23 24 24 26 29 29 28 27 26 24 23 24 22 22 22 21 22 23
27 24 22 37 35 30 31 30 32 34 33 31 28 29 29 29 29 32 30 28 28 25 23 24 25 24 22 21 26 28 28 28 28 28 28 27 23 22 22 21 20 20 21 21
32 29 32 36 32 34 35 32 30 30 32 31 30 29 27 26 28 31 30 28 28 26 24 24 24 23 21 23 26 28 27 26 26 28 28 27 24 23 21 21 21 20 20 18
31 32 32 35 35 35 34 31 31 33 33 31 28 29 27 28 29 29 29 27 27 25 23 22 23 24 23 24 26 27 26 26 26 25 25 26 26 26 25 23 22 21 19 18
30 30 34 35 36 33 32 33 33 33 32 31 30 31 31 30 29 29 28 28 26 24 22 21 22 22 22 24 25 27 26 26 24 24 23 23 24 23 24 23 26 22 19 18
27 32 31 31 35 34 32 31 33 31 29 31 32 31 30 28 29 28 26 26 24 24 22 21 21 20 21 22 24 24 25 24 22 22 21 22 20 20 26 26 29 28 28 24
32 35 31 34 35 36 33 32 32 31 31 30 32 30 28 26 28 28 26 26 24 23 22 22 20 18 18 20 22 22 20 22 20 21 20 18 17 16 12 18 25 26 26 26
35 34 31 33 31 35 36 35 35 33 32 31 31 30 29 28 27 26 24 24 24 23 22 21 19 16 15 16 16 15 15 14 11 10 6 7 2 3 1 1 1 5 16 23
34 35 34 36 34 33 34 33 29 27 28 27 28 26 27 24 23 23 24 26 24 20 18 16 16 14 15 18 17 14 19 11 4 3 3 2 2 2 1 3 2 1 5 12
33 33 32 31 32 32 32 29 27 26 26 26 26 27 26 24 22 21 24 23 21 19 19 13 16 14 16 14 13 14 11 12 8 6 4 5 4 4 6 5 5 3 3 3
30 29 31 31 31 31 28 28 28 27 26 24 22 21 20 17 17 15 14 15 16 14 13 12 11 8 8 6 7 8 8 12 11 13 11 10 9 8 8 5 4 4 4 -0
35 33 34 35 31 28 28 28 28 26 23 21 20 18 17 16 16 14 12 10 10 10 10 11 9 9 9 9 9 14 14 14 14 13 14 11 12 13 10 9 9 7 7 9
36 32 32 33 30 29 28 26 25 23 20 19 17 16 15 13 14 12 9 11 12 13 13 10 19 17 17 16 16 15 13 10 11 13 11 9 7 8 7 6 6 5 6 8
30 30 30 29 29 28 21 17 18 17 17 17 14 13 11 9 10 8 6 12 13 15 14 17 19 18 17 15 12 13 10 6 10 6 3 5 0 -1 1 3 4 2 -0 3
26 25 23 22 16 15 17 18 17 15 12 15 16 14 13 9 8 9 11 16 13 13 17 15 14 13 14 11 11 6 2 -1 -2 -0 -3 -6 -9 -4 -5 -4 -3 1 -3 -1
22 21 17 16 18 13 14 17 16 14 13 12 11 10 10 10 7 8 8 17 17 13 15 14 12 4 8 6 7 -2 4 2 -1 -3 -5 -8 -10 -13 -12 -10 -6 -8 -8 -8
19 19 18 18 18 15 15 15 15 16 14 13 12 12 14 16 17 16 14 19 17 13 13 8 1 -1 -3 -4 -7 -10 -9 -10 -10 -12 -15 -18 -18 -16 -14 -15 -13 -14 -12 -9
18 19 17 18 18 18 15 13 17 17 14 14 12 11 18 16 15 19 17 13 10 6 4 1 -1 -3 -7 -12 -14 -15 -15 -17 -17 -20 -16 -16 -22 -21 -18 -19 -16 -14 -13 -9
20 19 18 18 20 19 20 20 20 20 19 21 21 19 21 20 15 14 12 10 10 5 3 -4 -6 -9 -14 -17 -18 -18 -18 -19 -21 -22 -22 -21 -22 -24 -25 -21 -20 -19 -14 -14
23 21 21 23 22 21 21 21 19 20 20 17 18 15 13 14 13 12 9 7 6 3 -2 -11 -15 -17 -17 -17 -19 -18 -17 -14 -20 -21 -22 -22 -24 -23 -24 -19 -17 -18 -17 -21
22 20 22 22 23 22 22 21 19 18 19 18 14 12 12 11 9 8 4 2 -2 -7 -12 -17 -16 -14 -16 -19 -18 -15 -16 -19 -21 -20 -25 -27 -28 -29 -25 -23 -20 -20 -18 -22
MSLP
1018.85 1018.58 1018.34 1018.13 1017.94 1017.82 1018.04 1017.97 1018.72 1018.34 1019.05 1019.54 1020.59 1022.15 1023.09 1024.12 1024.47 1024.86 1025.48 1025.75 1025.92 1025.82 1025.60 1024.95 1024.41 1023.64 1022.97 1022.13 1021.16 1020.25 1019.51 1018.74 1018.09 1017.31 1016.31 1015.38 1014.37 1014.21 1012.77 1012.33 1010.54 1009.84 1008.63 1007.85
1019.20 1018.81 1018.43 1017.68 1017.37 1017.13 1016.83 1016.95 1017.32 1017.85 1018.42 1019.18 1020.47 1021.97 1023.00 1023.63 1023.99 1024.53 1025.11 1025.47 1025.82 1025.76 1025.76 1025.38 1024.92 1024.23 1023.79 1023.08 1022.52 1021.58 1021.02 1020.56 1019.97 1019.18 1018.63 1017.69 1017.01 1016.02 1015.38 1013.78 1012.52 1011.78 1010.53 1010.45
1018.94 1018.62 1017.82 1017.13 1016.35 1016.01 1015.74 1015.73 1016.16 1017.33 1017.65 1019.56 1020.97 1021.80 1022.61 1023.63 1023.79 1024.22 1024.79 1025.48 1026.00 1026.18 1026.06 1025.87 1025.46 1024.97 1024.37 1023.91 1023.35 1022.98 1022.51 1021.87 1021.14 1020.64 1019.88 1019.37 1018.61 1017.41 1017.18 1016.10 1015.43 1014.66 1013.33 1012.71
1019.12 1018.87 1017.48 1015.97 1015.48 1015.28 1015.45 1015.32 1015.76 1016.95 1018.10 1019.35 1020.68 1021.92 1022.65 1023.52 1023.74 1024.22 1024.80 1025.59 1026.12 1026.39 1026.46 1026.18 1025.88 1025.51 1025.01 1024.51 1024.06 1023.75 1023.52 1022.99 1022.26 1021.54 1021.01 1020.49 1019.92 1019.50 1019.12 1018.15 1017.33 1017.55 1016.98 1016.05
1019.13 1018.24 1016.60 1015.91 1015.68 1015.73 1015.71 1015.38 1015.75 1017.19 1018.88 1020.31 1021.61 1022.55 1023.37 1023.45 1023.73 1024.25 1024.98 1025.73 1026.29 1026.58 1026.78 1026.61 1026.26 1026.01 1025.61 1025.14 1024.75 1024.25 1023.96 1023.60 1023.04 1022.33 1021.63 1020.99 1020.33 1020.10 1020.33 1020.11 1020.12 1020.25 1019.79 1018.62
1018.40 1017.79 1016.61 1015.67 1015.65 1015.91 1015.78 1016.10 1016.02 1017.18 1018.99 1020.36 1021.76 1022.70 1022.68 1023.21 1023.87 1024.46 1025.23 1025.89 1026.45 1026.82 1027.02 1027.02 1026.89 1026.56 1026.16 1025.79 1025.40 1024.88 1024.49 1024.22 1023.89 1023.31 1022.76 1022.49 1022.14 1022.01 1021.92 1021.86 1022.06 1022.09 1021.34 1020.26
1017.45 1017.33 1016.60 1015.69 1016.02 1016.07 1016.74 1017.18 1016.93 1017.66 1018.92 1020.39 1021.32 1021.60 1021.98 1023.28 1024.17 1024.72 1025.44 1026.11 1026.65 1027.11 1027.47 1027.68 1027.48 1027.17 1026.90 1026.59 1026.20 1025.80 1025.25 1024.78 1024.39 1024.07 1023.79 1023.76 1023.60 1023.36 1023.30 1023.16 1023.01 1022.97 1022.47 1021.68
1017.47 1017.54 1016.67 1016.06 1016.49 1016.87 1017.03 1017.43 1017.76 1018.28 1019.26 1020.47 1021.27 1021.90 1022.65 1023.51 1024.31 1025.01 1025.79 1026.35 1026.89 1027.35 1027.88 1028.23 1028.03 1027.72 1027.58 1027.26 1026.99 1026.38 1025.95 1025.58 1025.22 1024.85 1024.64 1024.39 1024.12 1024.17 1024.17 1024.10 1024.01 1023.51 1022.49 1021.54
1016.86 1016.84 1016.61 1016.65 1017.03 1017.15 1017.33 1017.76 1018.54 1019.01 1019.61 1020.54 1021.59 1022.45 1023.11 1023.88 1024.54 1025.44 1026.10 1026.64 1027.23 1027.59 1028.06 1028.49 1028.56 1028.44 1028.20 1028.05 1027.39 1026.81 1026.52 1026.39 1026.11 1025.72 1025.42 1025.38 1025.34 1025.08 1024.91 1024.72 1024.23 1023.73 1023.18 1022.56
1017.34 1016.82 1017.02 1017.16 1017.51 1017.69 1018.02 1018.40 1018.94 1019.37 1020.10 1020.99 1021.89 1022.87 1023.58 1024.18 1024.95 1025.81 1026.42 1026.94 1027.44 1027.97 1028.36 1028.74 1029.03 1029.01 1028.77 1028.46 1027.86 1027.25 1027.03 1026.91 1026.73 1026.58 1026.21 1025.86 1025.74 1025.53 1025.37 1024.98 1024.71 1024.26 1023.73 1023.63
1016.99 1017.05 1017.41 1017.42 1017.72 1018.42 1018.85 1019.26 1019.72 1020.23 1020.76 1021.43 1022.18 1023.06 1023.70 1024.53 1025.53 1026.25 1026.76 1027.32 1027.86 1028.35 1028.74 1029.11 1029.35 1029.43 1029.49 1029.21 1028.75 1028.09 1027.95 1027.79 1027.53 1027.14 1026.99 1026.74 1026.32 1025.90 1025.21 1024.93 1024.49 1024.23 1024.10 1023.94
1015.76 1015.44 1016.12 1016.48 1017.43 1018.45 1018.93 1019.60 1020.26 1020.66 1021.53 1022.27 1022.67 1023.28 1024.26 1025.35 1026.04 1026.52 1027.12 1027.76 1028.35 1028.89 1029.23 1029.59 1029.72 1029.81 1029.92 1029.77 1029.39 1029.13 1028.93 1028.77 1028.51 1028.24 1028.06 1027.63 1027.43 1027.03 1026.36 1025.84 1025.26 1024.98 1024.83 1024.69
1015.09 1015.72 1016.47 1016.89 1017.70 1018.41 1018.93 1019.91 1020.70 1021.23 1021.83 1022.52 1023.37 1024.12 1025.02 1025.79 1026.38 1026.96 1027.60 1028.15 1028.75 1029.28 1029.67 1029.95 1030.16 1030.33 1030.49 1030.26 1030.04 1029.90 1029.93 1029.83 1029.85 1029.78 1029.47 1029.35 1029.14 1028.65 1028.07 1027.29 1026.78 1026.31 1025.98 1025.55
1015.48 1016.05 1017.29 1017.55 1018.03 1018.69 1019.13 1020.23 1021.04 1021.77 1022.51 1023.17 1023.88 1024.84 1025.60 1026.22 1026.91 1027.58 1028.13 1028.68 1029.24 1029.71 1030.13 1030.38 1030.59 1030.81 1030.87 1030.72 1030.64 1030.65 1030.78 1030.99 1031.00 1030.91 1030.76 1030.59 1030.66 1030.24 1029.77 1029.09 1028.46 1027.66 1026.76 1025.94
1015.80 1015.88 1016.30 1017.29 1018.43 1019.04 1019.88 1020.71 1021.57 1022.45 1023.28 1024.04 1024.81 1025.41 1026.07 1026.70 1027.45 1028.18 1028.77 1029.21 1029.77 1030.28 1030.65 1030.83 1031.01 1031.25 1031.19 1031.21 1031.28 1031.35 1031.17 1031.20 1031.16 1030.93 1030.74 1030.65 1030.56 1030.48 1030.40 1029.97 1029.38 1028.99 1028.26 1027.53
1016.23 1016.49 1017.09 1017.74 1018.50 1019.28 1020.18 1021.19 1021.96 1022.96 1023.79 1024.67 1025.37 1026.00 1026.50 1027.26 1028.03 1028.65 1029.15 1029.70 1030.14 1030.69 1031.04 1031.23 1031.40 1031.43 1031.52 1031.59 1031.51 1031.41 1031.32 1031.09 1030.84 1030.77 1030.63 1030.68 1030.60 1030.64 1030.35 1029.99 1029.68 1029.42 1029.02 1028.69
1016.45 1017.14 1017.54 1017.94 1018.59 1019.53 1020.54 1021.48 1022.23 1023.16 1024.14 1024.98 1025.79 1026.53 1027.30 1028.14 1028.86 1029.45 1029.88 1030.17 1030.58 1031.08 1031.30 1031.55 1031.63 1031.74 1031.93 1032.13 1031.75 1031.51 1031.38 1031.16 1030.86 1030.67 1030.50 1030.39 1030.32 1030.16 1029.87 1029.72 1029.63 1029.47 1029.14 1028.55
1015.59 1016.45 1017.18 1017.97 1018.97 1020.00 1021.09 1021.91 1022.75 1023.65 1024.56 1025.43 1026.33 1027.15 1027.88 1028.53 1029.21 1029.94 1030.35 1030.72 1031.13 1031.46 1031.47 1031.43 1031.54 1031.79 1031.97 1031.65 1031.45 1031.47 1031.46 1031.29 1031.00 1030.92 1030.69 1030.60 1030.34 1030.00 1029.85 1029.78 1029.58 1029.26 1028.78 1028.17
1016.04 1016.93 1017.75 1018.59 1019.54 1020.49 1021.41 1022.32 1023.20 1024.02 1025.04 1025.96 1026.84 1027.64 1028.22 1029.00 1029.69 1030.27 1030.71 1031.03 1031.33 1031.54 1031.53 1031.30 1031.43 1031.68 1031.74 1031.35 1031.40 1031.66 1031.76 1031.78 1031.64 1031.49 1031.27 1031.05 1030.92 1030.74 1030.52 1030.29 1030.07 1029.68 1029.26 1028.78
1017.06 1017.68 1018.41 1019.35 1020.21 1021.05 1022.12 1022.93 1023.73 1024.68 1025.55 1026.32 1027.31 1028.32 1028.92 1029.64 1030.06 1030.51 1030.87 1031.26 1031.36 1031.32 1031.36 1031.50 1031.63 1031.77 1031.77 1031.91 1032.14 1032.13 1032.33 1032.33 1032.22 1032.10 1032.06 1031.99 1031.95 1031.85 1031.38 1030.89 1030.53 1030.20 1029.93 1029.49
1017.93 1018.61 1019.39 1020.20 1021.12 1021.86 1022.63 1023.35 1024.21 1025.23 1026.07 1026.57 1027.23 1028.25 1029.01 1029.66 1030.17 1030.60 1031.08 1031.24 1031.42 1031.37 1031.61 1031.85 1032.01 1032.07 1032.13 1032.35 1032.33 1032.66 1032.87 1032.98 1033.03 1033.13 1033.23 1033.23 1033.05 1032.71 1032.39 1031.98 1031.50 1031.20 1030.87 1030.37
1018.67 1019.51 1020.28 1021.01 1021.78 1022.73 1023.38 1023.82 1024.53 1025.51 1026.32 1027.04 1027.66 1028.39 1029.13 1029.81 1030.12 1030.53 1030.82 1030.78 1031.28 1031.62 1032.04 1032.33 1032.48 1033.17 1033.01 1033.09 1033.24 1033.67 1033.88 1033.98 1034.03 1033.99 1034.03 1034.00 1033.98 1033.89 1033.47 1032.91 1032.56 1032.13 1031.60 1031.01
1019.25 1020.03 1020.84 1021.61 1022.30 1023.11 1023.96 1024.50 1025.10 1025.69 1026.50 1027.20 1027.85 1028.48 1028.87 1029.18 1029.60 1030.07 1030.71 1031.11 1031.50 1032.05 1032.54 1033.03 1033.62 1033.94 1034.13 1034.30 1034.74 1034.65 1034.75 1034.84 1034.92 1034.95 1034.89 1034.76 1034.62 1034.39 1034.07 1033.71 1033.27 1032.72 1032.14 1031.53
1020.20 1020.92 1021.62 1022.35 1022.93 1023.62 1024.43 1025.19 1025.50 1026.05 1026.57 1027.23 1027.86 1028.41 1028.59 1029.16 1029.76 1030.06 1030.44 1031.12 1031.89 1032.57 1033.17 1033.79 1034.11 1034.33 1034.69 1035.30 1035.71 1035.62 1035.64 1035.67 1035.70 1035.58 1035.39 1035.33 1035.24 1035.00 1034.58 1034.14 1033.65 1033.07 1032.44 1031.87
1020.87 1021.54 1022.16 1022.75 1023.25 1023.79 1024.32 1024.97 1025.57 1026.21 1026.84 1027.43 1027.95 1028.34 1028.65 1029.09 1029.49 1030.64 1031.12 1031.96 1032.67 1033.28 1033.90 1034.40 1034.59 1035.04 1035.57 1035.94 1036.39 1036.23 1036.20 1036.12 1036.23 1035.98 1035.96 1035.88 1035.75 1035.47 1035.00 1034.41 1033.93 1033.48 1032.84 1032.22
1021.20 1021.91 1022.51 1022.85 1023.29 1023.76 1024.35 1024.95 1025.51 1026.11 1026.68 1027.46 1028.12 1028.65 1029.15 1029.69 1030.29 1031.10 1031.92 1032.65 1033.38 1034.06 1034.77 1035.23 1035.59 1035.85 1036.02 1036.01 1036.14 1036.03 1035.91 1035.57 1035.89 1035.83 1035.91 1036.00 1035.86 1035.62 1035.28 1034.32 1033.71 1033.26 1032.84 1032.59
1021.66 1022.16 1022.71 1023.20 1023.60 1023.98 1024.44 1024.95 1025.56 1026.14 1026.65 1027.28 1028.26 1029.19 1029.67 1030.36 1031.13 1031.91 1032.68 1033.43 1034.13 1034.89 1035.75 1036.04 1036.07 1035.90 1036.10 1036.32 1036.18 1035.96 1035.84 1035.96 1035.99 1035.98 1036.34 1036.31 1036.02 1035.77 1035.09 1034.52 1033.82 1033.26 1032.67 1032.44
Wind_Speed
6 7 7 11 15 14 11 13 7 6 7 4 13 9 6 6 4 5 4 5 5 6 7 7 10 11 12 14 16 17 18 18 18 17 18 18 19 20 19 17 19 18 16 20
4 8 12 18 16 18 14 15 14 11 12 3 7 8 6 6 5 5 4 4 5 6 9 9 10 11 11 12 13 14 16 16 16 16 17 17 17 16 19 19 20 20 23 21
12 8 11 11 17 14 4 6 9 11 6 11 7 9 8 6 5 5 5 5 5 5 6 8 9 10 10 10 10 12 13 14 14 14 14 15 15 18 19 21 20 22 22 22
7 5 12 8 3 5 7 6 6 3 5 10 9 6 7 4 5 5 6 5 4 3 5 6 7 9 9 10 10 10 11 13 14 14 15 14 15 17 17 17 20 19 19 17
5 8 10 9 3 3 4 6 6 8 9 10 10 6 1 5 4 5 6 5 5 5 4 6 9 8 9 10 10 11 12 12 14 15 16 17 18 18 16 15 16 15 13 16
3 6 3 5 3 3 4 5 9 10 14 16 11 4 5 8 6 8 7 6 6 6 7 8 9 8 9 10 10 12 12 12 11 13 14 15 15 14 13 11 11 9 12 13
6 5 7 3 3 2 3 6 4 11 14 16 7 2 7 9 6 10 9 8 7 8 8 7 8 7 9 9 10 9 10 11 12 11 12 10 10 11 10 10 9 9 10 11
4 4 9 3 2 5 3 3 2 5 9 11 8 12 12 9 11 12 10 8 7 7 7 7 8 7 8 10 9 8 9 11 11 11 10 9 11 9 9 8 9 10 12 11
6 5 0 1 2 2 4 4 3 5 7 11 13 11 9 9 11 10 10 7 6 6 8 8 8 8 8 9 9 9 9 10 10 10 9 8 7 8 7 7 8 10 10 10
2 4 4 3 2 2 2 4 6 10 12 13 14 10 11 12 12 8 7 7 6 7 8 8 8 8 8 9 9 9 10 10 8 8 9 9 7 8 8 6 7 9 10 10
3 3 1 6 5 6 9 9 11 10 10 13 14 13 13 12 11 9 7 7 7 7 7 8 7 8 8 8 8 8 9 9 9 8 9 9 8 9 10 7 12 9 9 9
7 9 4 3 11 11 12 11 11 13 10 11 11 12 13 10 8 8 8 8 7 7 7 7 7 7 8 8 7 7 8 7 7 6 7 7 7 8 17 17 17 19 20 13
4 8 3 9 11 8 12 11 9 10 11 13 11 12 11 10 6 11 8 9 8 7 7 6 7 8 7 8 8 9 7 8 5 6 5 6 5 6 6 7 15 15 16 17
11 12 7 8 6 8 12 10 12 10 11 12 12 11 10 9 10 8 8 8 8 7 6 5 5 5 5 5 6 5 5 6 3 1 2 2 2 2 2 2 4 5 10 13
6 2 7 10 12 11 11 11 11 11 12 11 9 11 10 10 9 9 8 9 8 6 4 3 4 3 3 4 5 5 3 2 2 1 1 1 2 2 1 2 2 3 4 6
5 9 11 13 14 13 12 12 13 11 11 11 11 10 9 10 8 6 8 8 7 5 3 2 1 2 3 4 4 3 3 5 3 2 3 3 2 2 2 2 3 3 3 3
12 10 11 12 12 12 11 9 10 10 11 10 9 10 10 9 8 7 5 4 5 4 3 3 3 2 3 2 3 2 3 4 5 3 3 3 3 3 3 2 2 3 4 4
5 7 9 10 11 11 11 10 10 11 10 10 10 10 10 9 9 7 5 3 3 1 3 4 2 1 3 2 1 2 2 3 4 4 4 4 5 5 4 4 4 4 4 5
10 11 9 10 10 10 10 10 9 9 10 10 11 9 7 6 7 5 5 5 4 4 2 2 2 5 4 4 4 2 3 4 4 4 4 5 4 5 4 4 5 5 6 6
7 8 9 9 8 9 8 5 9 10 8 9 9 8 7 6 6 6 3 5 3 2 2 4 5 4 4 5 5 3 3 3 3 3 3 5 4 5 5 6 6 5 5 7
8 8 9 9 6 6 7 9 11 10 7 9 11 9 8 6 5 6 5 5 1 4 6 6 4 2 3 4 4 3 3 3 3 3 3 3 3 4 5 5 5 6 6 6
7 7 8 8 8 6 5 7 8 9 9 7 6 7 7 6 5 3 0 5 4 6 5 4 4 5 4 5 4 3 3 4 3 3 3 3 3 3 4 4 5 5 5 5
6 7 8 8 9 8 7 6 6 9 9 8 8 7 5 4 6 6 5 5 5 6 5 4 5 6 6 4 3 3 3 3 3 3 2 2 2 2 2 3 4 4 5 6
6 7 6 7 10 9 9 4 7 6 6 6 6 5 7 6 4 4 6 8 9 7 5 4 5 6 6 3 3 3 3 3 2 2 2 2 2 3 3 4 4 5 5 5
7 7 7 8 8 5 8 9 8 8 8 7 7 5 5 3 4 4 6 6 9 7 5 5 7 6 3 3 3 3 2 1 0 1 1 1 2 3 3 3 3 4 3 4
8 5 5 5 5 6 7 7 6 6 6 5 4 4 4 5 7 7 6 7 6 7 5 3 3 3 3 2 2 2 1 2 2 2 2 2 3 3 3 5 5 4 5 4
5 6 5 4 4 6 6 6 7 6 5 6 6 4 6 6 6 7 7 5 5 4 4 3 3 3 2 2 2 1 1 2 2 3 2 2 3 3 4 5 5 5 5 4
Wind_Direction
234 254 271 280 284 274 235 238 229 250 227 221 201 183 167 161 145 103 60 2 347 348 339 345 357 1 4 10 4 7 15 13 11 11 11 13 23 17 10 14 26 29 44 49
260 269 268 269 266 259 248 251 243 251 257 184 132 130 146 155 139 117 100 32 358 358 6 2 1 7 4 10 13 13 14 17 12 14 17 17 22 24 15 23 28 22 39 42
277 278 281 276 239 240 246 201 210 221 219 147 166 171 156 164 143 127 122 77 25 10 16 10 3 2 7 7 17 25 23 17 18 17 25 25 27 31 25 26 24 26 27 34
286 303 268 248 235 213 222 243 186 105 150 166 148 116 118 152 142 128 127 106 59 17 16 9 10 9 8 10 18 27 30 28 23 25 30 32 34 37 32 26 29 23 24 25
245 237 277 305 209 216 188 275 178 139 126 120 116 83 357 156 130 126 127 114 91 55 28 12 20 6 17 14 17 23 25 27 26 23 28 27 30 33 32 33 33 27 19 24
210 271 259 239 192 238 225 275 157 142 154 151 150 170 223 167 135 121 113 103 88 60 46 30 9 8 25 15 18 19 19 22 22 28 29 28 30 29 26 33 35 22 28 26
217 234 254 180 191 261 134 245 136 161 164 163 182 194 131 127 107 121 119 109 90 71 56 35 15 16 27 19 16 14 19 21 24 22 34 27 30 31 24 24 25 25 32 36
197 238 264 97 29 179 206 27 55 131 154 158 122 124 121 121 130 123 118 102 88 79 60 34 28 30 26 18 354 19 21 25 22 24 24 22 23 26 28 29 32 31 30 33
187 234 36 255 274 323 153 140 138 116 132 133 133 127 120 129 120 121 118 103 90 84 74 50 31 34 33 359 359 24 29 22 18 17 21 25 27 31 25 23 31 29 32 33
76 204 211 171 43 50 78 124 114 122 128 134 134 126 123 118 115 117 116 111 102 83 70 58 45 39 29 11 358 26 26 22 17 14 21 26 31 30 28 27 34 33 32 32
263 282 195 230 174 130 117 116 122 124 132 139 136 134 131 118 125 135 126 107 93 81 70 56 42 42 26 19 11 30 32 23 14 18 18 18 21 19 22 8 31 28 24 18
217 200 170 196 152 148 139 137 143 138 127 134 139 135 122 131 142 135 124 117 104 90 77 59 49 40 23 15 19 32 38 25 17 17 15 17 15 11 20 29 31 36 28 22
230 129 110 128 139 152 134 135 139 137 138 139 127 124 130 143 140 128 122 120 115 104 88 71 56 46 20 18 28 39 29 22 24 32 21 21 13 13 11 358 22 35 24 21
124 110 106 153 158 151 122 141 137 123 124 125 131 129 141 139 129 126 121 119 117 109 93 78 68 43 10 14 29 34 34 31 26 345 349 15 10 359 10 23 344 333 350 6
138 53 142 126 145 133 134 133 126 124 128 127 132 144 149 132 128 128 128 126 121 112 103 84 65 13 14 21 34 14 11 347 307 292 320 325 340 342 326 349 338 308 327 345
110 117 130 148 148 141 140 138 135 139 137 144 151 148 133 124 120 110 129 139 144 149 137 119 36 288 3 11 359 354 342 337 347 327 326 320 302 310 307 307 308 307 311 284
129 146 158 155 150 153 156 153 147 147 147 143 133 125 119 116 112 107 101 96 120 150 175 176 228 298 327 349 325 307 326 322 330 328 334 318 297 300 301 297 294 282 260 243
140 133 152 155 152 147 146 143 140 141 144 139 133 129 133 141 142 141 145 132 116 93 221 228 248 293 305 318 10 341 327 331 337 326 325 335 348 347 347 343 334 334 326 326
140 140 140 148 149 146 146 143 142 130 132 138 139 148 140 126 133 135 134 132 127 121 300 329 41 87 56 44 46 20 14 2 350 11 5 7 6 4 2 3 358 354 354 354
112 122 129 128 128 135 126 105 125 126 135 128 118 127 130 137 140 140 138 158 170 146 133 83 88 75 52 54 53 53 27 360 4 15 8 2 4 359 355 357 349 352 356 353
128 125 127 129 111 94 121 139 135 142 143 141 144 153 153 144 149 143 145 137 201 151 109 94 80 59 66 68 52 43 38 34 23 20 21 1 354 350 344 343 347 8 345 339
130 131 131 130 132 117 118 128 123 129 137 129 114 124 130 141 143 139 102 140 135 118 102 89 78 70 78 69 66 54 41 45 40 18 14 2 3 349 345 355 353 333 325 319
119 130 129 133 139 133 102 104 123 139 140 144 145 148 152 154 161 145 141 131 117 109 98 88 100 91 85 74 75 77 74 65 48 28 0 11 5 360 348 329 322 317 319 320
102 102 98 101 116 123 127 118 129 127 123 136 133 153 140 115 68 78 99 101 102 100 104 117 94 91 85 78 80 86 83 73 51 357 355 37 18 351 347 329 324 318 314 324
111 111 119 135 141 139 133 145 133 140 143 147 150 156 136 73 127 132 109 109 115 107 101 78 87 88 79 78 96 121 134 113 131 78 77 43 349 340 315 314 306 303 311 331
136 133 143 144 142 138 140 148 147 148 144 131 118 105 91 93 104 109 104 110 110 112 100 84 82 82 79 72 102 125 88 17 16 22 47 17 347 335 324 318 308 314 314 306
115 124 133 121 135 144 152 152 149 158 150 140 121 119 118 112 108 111 110 107 103 102 99 78 82 95 76 45 59 65 294 17 28 73 37 348 325 296 305 304 305 301 300 301